Weather History for KPOF - June, 2013

Change the Weather History Date:

Thursday, June 27, 2013

  Actual Average (KCGI) Record (KCGI)
Temperature  
Mean Temperature 88 °F 78 °F  
Max Temperature 100 °F 89 °F 99 °F (1971)
Min Temperature 77 °F 67 °F 53 °F (2012)
Degree Days  
Heating Degree Days 0 0  
Month to date heating degree days 1  
Since 1 June heating degree days 1  
Since 1 July heating degree days 4387  
Cooling Degree Days 24 13  
Month to date cooling degree days 271  
Year to date cooling degree days 423  
Since 1 June cooling degree days 271  
Growing Degree Days 38 (Base 50)    
Moisture  
Dew Point 70 °F    
Average Humidity 59    
Maximum Humidity 88    
Minimum Humidity 32    
Precipitation  
Precipitation 0.00 in 0.11 in 0.91 in (1960)
Month to date precipitation 3.23  
Year to date precipitation 24.33  
Sea Level Pressure  
Sea Level Pressure 29.84 in    
Wind  
Wind Speed 6 mph (WNW)    
Max Wind Speed 13 mph    
Max Gust Speed 18 mph    
Visibility 10 miles    
Events      
T = Trace of Precipitation, MM = Missing Value Source: NWS Daily Summary

Daily Weather History Graph

Daily Weather History Graph

Search for Another Location

Airport or City:

Trip Planner

Search our weather history database for the weather conditions in past years. The results will help you decide how hot, cold, wet, or windy it might be!

Date:

Astronomy

Jun. 27, 2013 Rise Set
Actual Time 5:44 AM CDT 8:24 PM CDT
Civil Twilight 5:13 AM CDT 8:54 PM CDT
Nautical Twilight 4:35 AM CDT 9:33 PM CDT
Astronomical Twilight 3:52 AM CDT 10:15 PM CDT
Moon 11:30 PM CDT (6/27) 10:37 AM CDT (6/27)
Length of Visible Light 15h 41m
Length of Day
14h 39m
Waning Gibbous, 76% of the Moon is Illuminated
Jun 27
Waning Gibbous
Jun 29
Last Quarter
Jul 8
New
Jul 15
First Quarter
Jul 22
Full

Hourly Weather History & Observations

Time (CDT) Temp. Heat Index Dew Point Humidity Pressure Visibility Wind Dir Wind Speed Gust Speed Precip Events Conditions
12:53 AM 82.9 °F 90.2 °F 75.0 °F 77% 29.81 in 10.0 mi SW 5.8 mph - N/A   Clear
1:53 AM 81.0 °F 86.7 °F 75.0 °F 82% 29.83 in 9.0 mi Calm Calm - N/A   Clear
2:53 AM 80.1 °F 85.1 °F 75.0 °F 85% 29.83 in 9.0 mi SW 5.8 mph - N/A   Clear
3:53 AM 78.1 °F - 73.9 °F 87% 29.83 in 9.0 mi Calm Calm - N/A   Clear
4:53 AM 77.0 °F - 73.0 °F 88% 29.84 in 9.0 mi WNW 3.5 mph - N/A   Clear
5:53 AM 77.0 °F - 72.0 °F 84% 29.84 in 9.0 mi West 5.8 mph - N/A   Clear
6:53 AM 80.1 °F 83.8 °F 72.0 °F 76% 29.86 in 10.0 mi West 5.8 mph - N/A   Clear
7:53 AM 82.0 °F 85.9 °F 70.0 °F 67% 29.86 in 10.0 mi WNW 6.9 mph - N/A   Clear
8:53 AM 84.0 °F 88.4 °F 70.0 °F 63% 29.87 in 10.0 mi WNW 6.9 mph - N/A   Clear
9:53 AM 90.0 °F 94.5 °F 69.1 °F 50% 29.87 in 10.0 mi WNW 5.8 mph - N/A   Clear
10:53 AM 91.9 °F 95.9 °F 68.0 °F 45% 29.87 in 10.0 mi WNW 11.5 mph - N/A   Clear
11:53 AM 93.9 °F 97.5 °F 66.9 °F 41% 29.86 in 10.0 mi NW 9.2 mph - N/A   Clear
12:53 PM 97.0 °F 101.0 °F 66.9 °F 37% 29.86 in 10.0 mi NW 12.7 mph 18.4 mph N/A   Clear
1:53 PM 99.0 °F 102.9 °F 66.0 °F 34% 29.86 in 10.0 mi WNW 12.7 mph - N/A   Clear
2:53 PM 99.0 °F 102.3 °F 64.9 °F 33% 29.86 in 10.0 mi WNW 11.5 mph - N/A   Clear
3:53 PM 100.0 °F 103.6 °F 64.9 °F 32% 29.85 in 10.0 mi NW 9.2 mph - N/A   Clear
4:53 PM 99.0 °F 102.9 °F 66.0 °F 34% 29.84 in 10.0 mi NW 12.7 mph - N/A   Clear
5:53 PM 96.1 °F 101.0 °F 68.0 °F 40% 29.84 in 10.0 mi North 10.4 mph - N/A   Clear
6:53 PM 93.0 °F 97.4 °F 68.0 °F 44% 29.83 in 10.0 mi North 6.9 mph - N/A   Clear
7:53 PM 87.1 °F 92.8 °F 71.1 °F 59% 29.81 in 10.0 mi Calm Calm - N/A   Clear
8:53 PM 84.0 °F 89.0 °F 71.1 °F 65% 29.80 in 10.0 mi SW 8.1 mph - N/A   Clear
9:53 PM 82.0 °F 85.5 °F 69.1 °F 65% 29.79 in 10.0 mi West 3.5 mph - N/A   Clear
10:53 PM 81.0 °F 84.1 °F 69.1 °F 67% 29.81 in 10.0 mi West 3.5 mph - N/A   Clear
11:53 PM 81.0 °F 84.1 °F 69.1 °F 67% 29.84 in 10.0 mi NNW 4.6 mph - N/A   Clear